Location: ??????
(41.3164°N, 22.6615°E)
Time: 01:21:26
(UTC+00:00)

BEESAT 2 - Pass Details

Date: 28 June 2022
Orbit: 481 x 508 km, 64.9° (Epoch: 07 August)

Event Time Altitude Azimuth Distance (km) Brightness Sun altitude
Rises 19:44:35 0° 315° (NW) 2,624 ? -14.6°
Reaches altitude 10° 19:47:01 10° 302° (WNW) 1,734 ? -14.9°
Maximum altitude 19:50:14 25° 246° (WSW) 1,055 ? -15.3°
Enters shadow 19:52:39 14° 198° (SSW) 1,473 ? -15.5°
